[[{"header":{"parameterUnit":"m.s-1","parameterCategory":1,"la1":30.2991,"la2":30.254,"lo1":-89.0895,"lo2":-89.0444,"dy":0.0017,"dx":0.0017,"nx":28,"ny":28,"refTime":"2023-04-17T21:00:00:Z","depth":0,"parameterNumber":2,"parameterNumberName":"U-component_of_WINDS"},"data":[0,0,0,0,0,0,0,0,0,0,0,0,0,0,0,0,0,0,0,0,0,0,0,0,0,0,0,0,0,0,0,0,0,0,0,0,0,0,0,0,0,0,0,0,0,0,0,0,0,0,0,0,0,0,0,0,0,0,0.9297,0.9296,0,0.9254,0.9254,0.9253,0.9213,0.9213,0.9212,0.9212,0.9169,0.9168,0.9168,0,0,0,0,0,0,0,0,0,0,0,0,0,0.9345,0.9344,0.9297,0.9296,0.9296,0.9254,0.9254,0.9253,0.9213,0.9213,0.9212,0.9211,0.9169,0.9168,0.9167,0,0,0,0,0,0,0,0,0,0,0,0,0,0.9315,0.9344,0.9297,0.9271,0.9268,0.9255,0.9254,0.9253,0.9213,0.9213,0.9212,0.9211,0.9169,0.9168,0.9167,0.9177,0,0,0.9164,0.9164,0,0,0,0,0,0,0,0,0.9317,0.9314,0.9275,0.9272,0.9269,0.9238,0.9255,0.9227,0.9214,0.9234,0.9212,0.9211,0.9193,0.919,0.9183,0.9175,0.9173,0.9164,0.9164,0.9163,0.9163,0,0,0,0,0,0,0,0.9319,0.9315,0.928,0.9275,0.9271,0.9262,0.9257,0.925,0.9218,0.9232,0.9229,0.9225,0.9191,0.9184,0.9182,0.9172,0.9164,0.9163,0.9163,0.9162,0.9171,0.9172,0,0,0,0,0,0,0.9325,0.9317,0.9281,0.9279,0.9292,0.9261,0.9256,0.9249,0.9218,0.9213,0.9225,0.9223,0.9187,0.9183,0.918,0.9191,0.9163,0.9162,0.9162,0.917,0.9171,0.9172,0,0,0,0,0,0,0.9326,0.9322,0.9283,0.9297,0.9291,0.9261,0.9254,0.9249,0.9242,0.9213,0.9207,0.9225,0.9186,0.9182,0.9178,0.9189,0.9162,0.9161,0.9169,0.9171,0.9172,0.9211,0,0,0,0,0,0,0.9328,0.9323,0.9325,0.9297,0.9291,0.9281,0.9255,0.9248,0.924,0.9237,0.9211,0.9206,0.9185,0.918,0.9177,0.9187,0.916,0.9168,0.917,0.9171,0.9209,0.9214,0.9218,0,0,0,0,0,0.9329,0.9338,0.9326,0.9322,0.9293,0.9282,0.9278,0.9254,0.9241,0.9244,0.9226,0.9206,0.9188,0.918,0.9177,0.9186,0.9168,0.917,0.9171,0.9207,0.9213,0.9217,0,0,0,0,0,0,0.9367,0.9333,0.932,0.9319,0.9304,0.9275,0.9278,0.9261,0.9248,0.9246,0.9216,0.9211,0.9211,0.9198,0.919,0.9195,0.9175,0.9177,0.9203,0.9209,0.9213,0.9217,0.9159,0,0,0,0,0,0.9375,0.9369,0.9339,0.9342,0.9335,0.9308,0.9302,0.9285,0.9268,0.9261,0.9242,0.9227,0.9218,0.9212,0.9202,0.9206,0.9201,0.9211,0.9216,0.922,0.9222,0.9225,0.923,0.9178,0.9178,0.9178,0,0,0.9392,0.9373,0.937,0.9349,0.9335,0.9329,0.9303,0.9297,0.9293,0.926,0.9256,0.9242,0.9223,0.9224,0.9224,0.9213,0.9235,0.9222,0.9225,0.9225,0.9228,0.9233,0.9237,0.918,0.9179,0.9179,0,0,0.9421,0.9405,0.9406,0.9393,0.9372,0.9355,0.9355,0.9329,0.9319,0.9315,0.9291,0.9285,0.927,0.9258,0.925,0.9276,0.9258,0.9273,0.9297,0.9301,0.9305,0.9309,0.932,0.9324,0.9275,0.9275,0.9275,0,0.9444,0.9435,0.9409,0.9406,0.9398,0.9368,0.937,0.9358,0.9336,0.9331,0.932,0.9301,0.9286,0.9285,0.9292,0.9285,0.9286,0.9277,0.9306,0.931,0.9313,0.9323,0.9327,0.9277,0.9277,0.9277,0.9277,0,0.9466,0.946,0.9463,0.9443,0.9435,0.9435,0.9409,0.9405,0.9389,0.9373,0.937,0.9351,0.9338,0.9336,0.932,0.9333,0.9328,0.9312,0.9292,0.932,0.933,0.9333,0.928,0.9279,0.9279,0.9278,0,0,0.9516,0.9483,0.9485,0.9476,0.9452,0.9447,0.9446,0.9433,0.9431,0.9416,0.9416,0.9404,0.939,0.9381,0.9363,0.9367,0.9391,0.935,0.935,0.936,0.9408,0.9421,0.9426,0.9379,0.938,0.938,0.941,0,0.9542,0.9538,0.9516,0.9518,0.9514,0.9486,0.9485,0.9471,0.9457,0.9451,0.9434,0.9428,0.9408,0.9403,0.9405,0.9388,0.9401,0.9385,0.938,0.938,0.9387,0.9431,0.9444,0.9474,0.9413,0.9414,0.9414,0,0.9571,0.956,0.9563,0.9541,0.9538,0.9538,0.9525,0.952,0.9504,0.9493,0.9484,0.9464,0.9463,0.9444,0.9442,0.9432,0.9429,0.942,0.9421,0.9421,0.94,0.9433,0.9482,0.9487,0.942,0.9419,0.9419,0,0.9611,0.9596,0.9596,0.9589,0.9563,0.9564,0.9553,0.9536,0.9531,0.952,0.9517,0.9506,0.95,0.9493,0.9471,0.9459,0.9473,0.9451,0.9466,0.9466,0.9471,0.9471,0.9521,0.9466,0.9466,0.9466,0.9465,0,0.9642,0.9646,0.9614,0.9614,0.9617,0.9592,0.9596,0.9583,0.9568,0.9567,0.9542,0.9541,0.9512,0.9508,0.9491,0.9494,0.9491,0.9483,0.9479,0.9486,0.9488,0.9485,0.9483,0.9467,0.9466,0.9466,0.9466,0,0.9687,0.9665,0.9664,0.964,0.9635,0.9638,0.9618,0.9618,0.9602,0.96,0.9599,0.9574,0.9568,0.9546,0.9535,0.9524,0.9532,0.9523,0.9538,0.9536,0.9552,0.9551,0.9603,0.9609,0.9548,0.9549,0.9549,0,0.971,0.9712,0.9689,0.9686,0.9676,0.9672,0.9666,0.9641,0.9637,0.962,0.9623,0.9615,0.9608,0.96,0.9582,0.9573,0.9565,0.9583,0.9563,0.9572,0.9568,0.9568,0.957,0.9588,0.9589,0.959,0.959,0,0.9753,0.9743,0.9736,0.9726,0.972,0.9711,0.9701,0.97,0.9672,0.9669,0.9663,0.9658,0.9647,0.964,0.9629,0.9619,0.9601,0.9597,0.96,0.9608,0.9618,0.9615,0.9552,0.9596,0.9595,0.9595,0.9595,0.9594,0.9788,0.979,0.9775,0.9768,0.9758,0.9749,0.9749,0.9734,0.9728,0.9718,0.9703,0.97,0.9686,0.9669,0.966,0.9658,0.9648,0.9652,0.9653,0.9655,0.966,0.9617,0.9656,0.9655,0.9655,0.9655,0.9655,0,0.9832,0.9821,0.9816,0.9803,0.9798,0.9781,0.9769,0.9767,0.9764,0.9753,0.9746,0.9741,0.9735,0.9716,0.9709,0.9711,0.9702,0.971,0.971,0.9709,0.9668,0.9667,0.9717,0.9717,0.9717,0.9717,0.9717,0.9716,0.9854,0.9857,0.9845,0.9843,0.9832,0.9829,0.9824,0.9816,0.9807,0.9802,0.9797,0.9785,0.9771,0.9762,0.9757,0.9752,0.9751,0.9761,0.9754,0.9717,0.9711,0.9705,0.9704,0.9761,0.9761,0.9795,0.9795,0.9795]},{"header":{"parameterUnit":"m.s-1","parameterCategory":1,"la1":30.2991,"la2":30.254,"lo1":-89.0895,"lo2":-89.0444,"dy":0.0017,"dx":0.0017,"nx":28,"ny":28,"refTime":"2023-04-17T21:00:00:Z","depth":0,"parameterNumber":3,"parameterNumberName":"V-component_of_WINDS"},"data":[0,0,0,0,0,0,0,0,0,0,0,0,0,0,0,0,0,0,0,0,0,0,0,0,0,0,0,0,0,0,0,0,0,0,0,0,0,0,0,0,0,0,0,0,0,0,0,0,0,0,0,0,0,0,0,0,0,0,-2.2321,-2.2322,0,-2.24,-2.2401,-2.2401,-2.2391,-2.2389,-2.2388,-2.2387,-2.2464,-2.2467,-2.2471,0,0,0,0,0,0,0,0,0,0,0,0,0,-2.2157,-2.216,-2.2321,-2.2322,-2.2323,-2.2399,-2.2401,-2.2402,-2.2391,-2.2389,-2.2388,-2.2386,-2.2463,-2.2467,-2.2471,0,0,0,0,0,0,0,0,0,0,0,0,0,-2.2231,-2.2161,-2.2321,-2.2327,-2.2328,-2.2399,-2.2401,-2.2402,-2.2391,-2.2389,-2.2387,-2.2385,-2.2462,-2.2467,-2.2471,-2.2541,0,0,-2.2486,-2.2488,0,0,0,0,0,0,0,0,-2.2227,-2.2237,-2.2325,-2.2326,-2.2328,-2.2383,-2.2371,-2.2448,-2.2392,-2.2367,-2.2387,-2.2384,-2.2439,-2.2445,-2.2464,-2.2544,-2.2548,-2.2487,-2.249,-2.2492,-2.2493,0,0,0,0,0,0,0,-2.2222,-2.2233,-2.2352,-2.2326,-2.2328,-2.2324,-2.2332,-2.2386,-2.2413,-2.2369,-2.2368,-2.2378,-2.2439,-2.246,-2.2466,-2.2549,-2.2487,-2.2491,-2.2494,-2.2496,-2.2688,-2.269,0,0,0,0,0,0,-2.2215,-2.2229,-2.2349,-2.2354,-2.2272,-2.2329,-2.2338,-2.2367,-2.2412,-2.2417,-2.238,-2.2377,-2.2452,-2.246,-2.2469,-2.2552,-2.2492,-2.2496,-2.2499,-2.2686,-2.2688,-2.2691,0,0,0,0,0,0,-2.2212,-2.2226,-2.2346,-2.2292,-2.2307,-2.2334,-2.2367,-2.237,-2.2391,-2.242,-2.2425,-2.2396,-2.2451,-2.2462,-2.2523,-2.2554,-2.2499,-2.2503,-2.2683,-2.2686,-2.2689,-2.2719,0,0,0,0,0,0,-2.2207,-2.2225,-2.2253,-2.2292,-2.231,-2.24,-2.2369,-2.2373,-2.2399,-2.2397,-2.2437,-2.2441,-2.245,-2.2515,-2.2528,-2.256,-2.2507,-2.268,-2.2685,-2.2688,-2.2716,-2.2723,-2.273,0,0,0,0,0,-2.2202,-2.2258,-2.2254,-2.2269,-2.2345,-2.2402,-2.2412,-2.2422,-2.2402,-2.2429,-2.2448,-2.244,-2.2549,-2.2522,-2.2535,-2.257,-2.2678,-2.2683,-2.2688,-2.2712,-2.2722,-2.2729,0,0,0,0,0,0,-2.222,-2.2263,-2.226,-2.2331,-2.2363,-2.24,-2.2435,-2.2432,-2.247,-2.2466,-2.2475,-2.2484,-2.2546,-2.2564,-2.2533,-2.2638,-2.2611,-2.2619,-2.2625,-2.2634,-2.264,-2.2635,-2.2511,0,0,0,0,0,-2.2233,-2.2277,-2.2311,-2.237,-2.2387,-2.2408,-2.2433,-2.2439,-2.2472,-2.2485,-2.2509,-2.254,-2.2582,-2.2609,-2.2648,-2.2718,-2.2726,-2.2748,-2.2755,-2.2761,-2.2767,-2.2804,-2.2814,-2.2707,-2.2707,-2.2706,0,0,-2.2259,-2.2287,-2.2315,-2.2375,-2.24,-2.2444,-2.242,-2.2468,-2.25,-2.2492,-2.2551,-2.2569,-2.2605,-2.2671,-2.2701,-2.2688,-2.2799,-2.2767,-2.2771,-2.2775,-2.281,-2.282,-2.2829,-2.271,-2.2709,-2.2709,0,0,-2.2328,-2.2355,-2.2407,-2.2433,-2.2473,-2.2486,-2.2499,-2.2537,-2.2548,-2.2608,-2.2603,-2.2641,-2.2712,-2.2737,-2.276,-2.2838,-2.2831,-2.2851,-2.2887,-2.2923,-2.2931,-2.2939,-2.2966,-2.2975,-2.2857,-2.2857,-2.2857,0,-2.2355,-2.2423,-2.2434,-2.2482,-2.2508,-2.2504,-2.2555,-2.258,-2.263,-2.2647,-2.2632,-2.2721,-2.2745,-2.2815,-2.2834,-2.2853,-2.2866,-2.2846,-2.2929,-2.2937,-2.2944,-2.297,-2.298,-2.2859,-2.2859,-2.2859,-2.2858,0,-2.2454,-2.2501,-2.2537,-2.2587,-2.2617,-2.2666,-2.2683,-2.2712,-2.2714,-2.2729,-2.2789,-2.2817,-2.2862,-2.2879,-2.2881,-2.295,-2.294,-2.2927,-2.29,-2.2956,-2.2981,-2.2991,-2.2862,-2.2861,-2.2861,-2.286,0,0,-2.2538,-2.2592,-2.2606,-2.2627,-2.267,-2.2706,-2.2754,-2.2799,-2.2823,-2.2857,-2.2897,-2.2957,-2.2945,-2.2971,-2.2975,-2.3007,-2.3066,-2.299,-2.2991,-2.3002,-2.3141,-2.3151,-2.3162,-2.3062,-2.3063,-2.3065,-2.3138,0,-2.2612,-2.27,-2.271,-2.2787,-2.283,-2.2826,-2.2868,-2.2898,-2.2912,-2.2949,-2.2965,-2.3007,-2.2988,-2.3003,-2.3035,-2.3052,-2.3094,-2.3047,-2.3098,-2.3099,-2.3089,-2.3175,-2.3185,-2.3253,-2.3148,-2.3149,-2.315,0,-2.271,-2.2747,-2.2829,-2.2865,-2.2883,-2.2921,-2.2962,-2.2998,-2.3031,-2.304,-2.3067,-2.3068,-2.3117,-2.3087,-2.3153,-2.3121,-2.3142,-2.3154,-2.3157,-2.3161,-2.3128,-2.3181,-2.3275,-2.3285,-2.3166,-2.3164,-2.3163,0,-2.2762,-2.2833,-2.2891,-2.291,-2.2953,-2.298,-2.2999,-2.303,-2.3056,-2.3091,-2.3108,-2.3148,-2.317,-2.32,-2.3211,-2.3189,-2.3276,-2.3248,-2.3283,-2.3283,-2.3302,-2.3301,-2.34,-2.3317,-2.3316,-2.3316,-2.3316,0,-2.2843,-2.2893,-2.2915,-2.2951,-2.3006,-2.3017,-2.3071,-2.3088,-2.3116,-2.3154,-2.3152,-2.3187,-2.3199,-2.3236,-2.3244,-2.3297,-2.3307,-2.3314,-2.3316,-2.3314,-2.3313,-2.3328,-2.3323,-2.3319,-2.3318,-2.3318,-2.3317,0,-2.2911,-2.2928,-2.2991,-2.3027,-2.3037,-2.3076,-2.3106,-2.3139,-2.3153,-2.3201,-2.3213,-2.3234,-2.3277,-2.3291,-2.3342,-2.3348,-2.3409,-2.3407,-2.3399,-2.3399,-2.3433,-2.3429,-2.3544,-2.3559,-2.3467,-2.3468,-2.3469,0,-2.2962,-2.3001,-2.304,-2.3066,-2.3086,-2.3128,-2.3154,-2.3165,-2.3192,-2.3232,-2.326,-2.3303,-2.3338,-2.3406,-2.3426,-2.3465,-2.3463,-2.35,-2.3469,-2.3465,-2.3462,-2.346,-2.3463,-2.3506,-2.3507,-2.3508,-2.3509,0,-2.305,-2.3056,-2.3095,-2.3136,-2.3168,-2.3201,-2.3232,-2.3253,-2.3268,-2.3299,-2.3343,-2.337,-2.3423,-2.3465,-2.3504,-2.3522,-2.3518,-2.3519,-2.3529,-2.3527,-2.3521,-2.3524,-2.3414,-2.3516,-2.3515,-2.3515,-2.3514,-2.3514,-2.311,-2.3144,-2.3177,-2.322,-2.3245,-2.3274,-2.3307,-2.3325,-2.3363,-2.3407,-2.3411,-2.3458,-2.3488,-2.3541,-2.3561,-2.3597,-2.3586,-2.3601,-2.3605,-2.3608,-2.361,-2.3515,-2.3604,-2.3604,-2.3604,-2.3604,-2.3604,0,-2.3197,-2.3218,-2.3257,-2.3302,-2.3335,-2.3329,-2.3363,-2.3391,-2.3433,-2.3462,-2.3496,-2.3546,-2.3587,-2.3609,-2.3648,-2.3673,-2.3672,-2.3683,-2.3681,-2.3685,-2.3618,-2.3605,-2.3683,-2.3683,-2.3683,-2.3683,-2.3683,-2.3683,-2.3246,-2.3302,-2.3312,-2.338,-2.34,-2.3448,-2.3467,-2.3494,-2.3517,-2.3573,-2.3607,-2.3622,-2.3647,-2.3689,-2.3725,-2.373,-2.3744,-2.3757,-2.376,-2.3698,-2.369,-2.3682,-2.367,-2.376,-2.376,-2.3824,-2.3824,-2.3825]}]]